sat.trackr.live / text

‹ back to catalog

JCSAT-110A (JCSAT-15)

NORAD 41903 · 2016-082A

PAYLOAD ACTIVE UNKNOWN

§ Identity

Operator
Country
JPN
Launch date
2016-12-21
Launch site
FRGUI
Launch vehicle
Mass (kg)
RCS (m²)
71.04

Purposes: comms

External: N2YO · Heavens-Above · Gunter

§ Orbital elements

Epoch: 2026-05-25T00:50:43.777824Z

Period
1,436.11 min
Inclination
0.0166°
Eccentricity
0.0000800
Mean motion
1.00270550 rev/d
Perigee alt
35,783.6 km
Apogee alt
35,790.3 km
Semi-major
42,165.1 km
B*
0.0000e+0
RAAN
338.7351°
Arg perigee
107.7694°
Mean anomaly
278.8688°
Rev number
3,452

§ Raw data

JCSAT-110A (JCSAT-15)1 41903U 16082A   26145.03522891 -.00000353  00000+0  00000+0 0  99922 41903   0.0166 338.7351 0000800 107.7694 278.8688  1.00270550 34525

JSON: /api/v1/satellites/41903 · /tle

For live sub-satellite position, see the globe view (requires WebGL).

§ Visibility from observer

Set your observer location to see the next 7 days of passes ≥ 10°. The values pass through the URL so the page stays shareable.

No JS? Fill the form by hand. The geolocation button needs JavaScript.